Time,TemperatureF,DewpointF,PressureIn,WindDirection,WindDirectionDegrees,WindSpeedMPH,WindSpeedGustMPH,Humidity,HourlyPrecipIn,Conditions,Clouds,dailyrainin,SoftwareType,DateUTC
2013-09-21 00:00:00,55.9,52.4,29.69,North,0,0.0,0.0,88,0.00,,CLR,0.00,VWS V14.01,2013-09-21 07:00:00,
2013-09-21 00:02:00,55.9,52.4,29.69,North,0,0.0,0.0,88,0.00,,OVC070,0.00,VWS V14.01,2013-09-21 07:02:00,
2013-09-21 00:05:00,55.7,52.2,29.69,NNE,22,0.0,0.0,88,0.00,,CLR,0.00,VWS V14.01,2013-09-21 07:05:00,
2013-09-21 00:07:00,55.7,52.2,29.69,NNE,22,0.0,0.0,88,0.00,,OVC070,0.00,VWS V14.01,2013-09-21 07:07:00,
2013-09-21 00:10:00,55.7,52.2,29.69,ESE,112,0.0,0.0,88,0.00,,CLR,0.00,VWS V14.01,2013-09-21 07:10:00,
2013-09-21 00:12:00,55.7,52.2,29.69,SE,135,0.0,0.0,88,0.00,,OVC070,0.00,VWS V14.01,2013-09-21 07:12:00,
2013-09-21 00:15:00,55.7,52.2,29.69,SE,135,0.0,0.0,88,0.00,,CLR,0.00,VWS V14.01,2013-09-21 07:15:00,
2013-09-21 00:17:00,55.7,52.2,29.69,SE,135,0.0,0.0,88,0.00,,OVC070,0.00,VWS V14.01,2013-09-21 07:17:00,
2013-09-21 00:20:00,55.5,52.0,29.69,NE,45,0.0,0.0,88,0.00,,CLR,0.00,VWS V14.01,2013-09-21 07:20:00,
2013-09-21 00:22:00,55.5,52.0,29.69,NE,45,0.0,0.0,88,0.00,,OVC070,0.00,VWS V14.01,2013-09-21 07:22:00,
2013-09-21 00:25:00,55.5,52.0,29.68,NE,45,0.0,0.0,88,0.00,,CLR,0.00,VWS V14.01,2013-09-21 07:25:00,
2013-09-21 00:27:00,55.5,52.0,29.68,SE,135,0.0,0.0,88,0.00,,OVC070,0.00,VWS V14.01,2013-09-21 07:27:00,
2013-09-21 00:30:00,55.4,51.9,29.69,SSE,158,0.0,0.0,88,0.00,,CLR,0.00,VWS V14.01,2013-09-21 07:30:00,
2013-09-21 00:32:00,55.4,51.9,29.68,SSE,158,0.0,0.0,88,0.00,,OVC070,0.00,VWS V14.01,2013-09-21 07:32:00,
2013-09-21 00:35:00,55.2,51.7,29.68,SSE,158,0.0,0.0,88,0.00,,CLR,0.00,VWS V14.01,2013-09-21 07:35:00,
2013-09-21 00:37:00,55.2,51.7,29.68,SSE,158,0.0,0.0,88,0.00,,OVC070,0.00,VWS V14.01,2013-09-21 07:37:00,
2013-09-21 00:40:00,55.2,51.7,29.69,SSE,158,0.0,0.0,88,0.00,,CLR,0.00,VWS V14.01,2013-09-21 07:40:00,
2013-09-21 00:42:00,55.2,51.7,29.68,SSE,158,0.0,0.0,88,0.00,,OVC070,0.00,VWS V14.01,2013-09-21 07:42:00,
2013-09-21 00:45:00,55.0,51.5,29.68,ESE,112,0.0,0.0,88,0.00,,CLR,0.00,VWS V14.01,2013-09-21 07:45:00,
2013-09-21 00:47:00,55.0,51.5,29.68,ESE,112,0.0,0.0,88,0.00,,OVC070,0.00,VWS V14.01,2013-09-21 07:47:00,
2013-09-21 00:50:00,54.8,51.3,29.68,ESE,112,0.0,0.0,88,0.00,,CLR,0.00,VWS V14.01,2013-09-21 07:50:00,
2013-09-21 00:52:00,54.6,51.1,29.68,ESE,112,0.0,0.0,88,0.00,,OVC070,0.00,VWS V14.01,2013-09-21 07:52:00,
2013-09-21 00:55:00,54.6,51.1,29.68,ESE,112,0.0,0.0,88,0.00,,CLR,0.00,VWS V14.01,2013-09-21 07:55:00,
2013-09-21 00:57:00,54.6,51.1,29.68,ESE,112,0.0,0.0,88,0.00,,OVC070,0.00,VWS V14.01,2013-09-21 07:57:00,
2013-09-21 01:00:00,54.6,51.1,29.68,ESE,112,0.0,0.0,88,0.00,,CLR,0.00,VWS V14.01,2013-09-21 08:00:00,
2013-09-21 01:03:00,54.6,51.1,29.68,ESE,112,0.0,0.0,88,0.00,,OVC070,0.00,VWS V14.01,2013-09-21 08:03:00,
2013-09-21 01:05:00,54.5,51.0,29.68,ESE,112,0.0,0.0,88,0.00,,CLR,0.00,VWS V14.01,2013-09-21 08:05:00,
2013-09-21 01:08:00,54.5,51.0,29.68,ESE,112,0.0,0.0,88,0.00,,OVC070,0.00,VWS V14.01,2013-09-21 08:08:00,
2013-09-21 01:10:00,54.5,51.0,29.69,ESE,112,0.0,0.0,88,0.00,,CLR,0.00,VWS V14.01,2013-09-21 08:10:00,
2013-09-21 01:13:00,54.5,51.0,29.68,ESE,112,0.0,0.0,88,0.00,,OVC070,0.00,VWS V14.01,2013-09-21 08:13:00,
2013-09-21 01:15:00,54.3,50.8,29.69,SE,135,0.0,0.0,88,0.00,,CLR,0.00,VWS V14.01,2013-09-21 08:15:00,
2013-09-21 01:18:00,54.3,50.8,29.68,SE,135,0.0,0.0,88,0.00,,OVC070,0.00,VWS V14.01,2013-09-21 08:18:00,
2013-09-21 01:20:00,54.3,50.8,29.68,SE,135,0.0,0.0,88,0.00,,CLR,0.00,VWS V14.01,2013-09-21 08:20:00,
2013-09-21 01:23:00,54.3,50.8,29.68,SE,135,0.0,0.0,88,0.00,,OVC070,0.00,VWS V14.01,2013-09-21 08:23:00,
2013-09-21 01:25:00,54.3,50.8,29.68,SE,135,0.0,0.0,88,0.00,,CLR,0.00,VWS V14.01,2013-09-21 08:25:00,
2013-09-21 01:28:00,54.3,50.8,29.68,SE,135,0.0,0.0,88,0.00,,OVC070,0.00,VWS V14.01,2013-09-21 08:28:00,
2013-09-21 01:30:00,54.3,50.8,29.68,SE,135,0.0,0.0,88,0.00,,CLR,0.00,VWS V14.01,2013-09-21 08:30:00,
2013-09-21 01:33:00,54.1,50.6,29.68,SE,135,0.0,0.0,88,0.00,,OVC070,0.00,VWS V14.01,2013-09-21 08:33:00,
2013-09-21 01:35:00,54.1,50.6,29.69,SE,135,0.0,0.0,88,0.00,,CLR,0.00,VWS V14.01,2013-09-21 08:35:00,
2013-09-21 01:38:00,54.1,50.6,29.69,SE,135,0.0,0.0,88,0.00,,OVC070,0.00,VWS V14.01,2013-09-21 08:38:00,
2013-09-21 01:40:00,54.1,50.6,29.69,East,90,0.0,0.0,88,0.00,,CLR,0.00,VWS V14.01,2013-09-21 08:40:00,
2013-09-21 01:43:00,54.1,50.6,29.69,East,90,0.0,0.0,88,0.00,,OVC070,0.00,VWS V14.01,2013-09-21 08:43:00,
2013-09-21 01:45:00,54.3,50.8,29.69,East,90,0.0,0.0,88,0.00,,CLR,0.00,VWS V14.01,2013-09-21 08:45:00,
2013-09-21 01:48:00,54.3,50.8,29.69,East,90,0.0,0.0,88,0.00,,OVC070,0.00,VWS V14.01,2013-09-21 08:48:00,
2013-09-21 01:50:00,54.3,50.8,29.69,East,90,0.0,0.0,88,0.00,,CLR,0.00,VWS V14.01,2013-09-21 08:50:00,
2013-09-21 01:53:00,54.3,50.8,29.69,East,90,0.0,0.0,88,0.00,,OVC070,0.00,VWS V14.01,2013-09-21 08:53:00,
2013-09-21 01:55:00,54.3,50.8,29.69,East,90,0.0,0.0,88,0.00,,CLR,0.00,VWS V14.01,2013-09-21 08:55:00,
2013-09-21 01:58:00,54.3,50.8,29.69,SE,135,0.0,0.0,88,0.00,,OVC070,0.00,VWS V14.01,2013-09-21 08:58:00,
2013-09-21 02:00:00,54.3,50.8,29.69,SE,135,0.0,0.0,88,0.00,,CLR,0.00,VWS V14.01,2013-09-21 09:00:00,
2013-09-21 02:04:00,54.3,50.8,29.69,SE,135,0.0,0.0,88,0.00,,OVC003,0.00,VWS V14.01,2013-09-21 09:04:00,
2013-09-21 02:05:00,54.3,50.8,29.69,SE,135,0.0,0.0,88,0.00,,CLR,0.00,VWS V14.01,2013-09-21 09:05:00,
2013-09-21 02:09:00,54.3,50.8,29.70,SE,135,0.0,0.0,88,0.00,,OVC003,0.00,VWS V14.01,2013-09-21 09:09:00,
2013-09-21 02:10:00,54.3,50.8,29.70,SE,135,0.0,0.0,88,0.00,,CLR,0.00,VWS V14.01,2013-09-21 09:10:00,
2013-09-21 02:14:00,54.1,50.6,29.70,SE,135,0.0,0.0,88,0.00,,OVC003,0.00,VWS V14.01,2013-09-21 09:14:00,
2013-09-21 02:15:00,54.1,50.6,29.70,SE,135,0.0,0.0,88,0.00,,CLR,0.00,VWS V14.01,2013-09-21 09:15:00,
2013-09-21 02:19:00,54.1,50.6,29.69,SE,135,0.0,0.0,88,0.00,,OVC003,0.00,VWS V14.01,2013-09-21 09:19:00,
2013-09-21 02:20:00,54.1,50.6,29.69,SE,135,0.0,0.0,88,0.00,,CLR,0.00,VWS V14.01,2013-09-21 09:20:00,
2013-09-21 02:24:00,54.1,50.6,29.69,SE,135,0.0,0.0,88,0.00,,OVC003,0.00,VWS V14.01,2013-09-21 09:24:00,
2013-09-21 02:25:00,54.1,50.6,29.69,SE,135,0.0,0.0,88,0.00,,CLR,0.00,VWS V14.01,2013-09-21 09:25:00,
2013-09-21 02:29:00,54.1,50.6,29.69,SE,135,0.0,0.0,88,0.00,,OVC003,0.00,VWS V14.01,2013-09-21 09:29:00,
2013-09-21 02:30:00,54.1,50.6,29.69,East,90,0.0,0.0,88,0.00,,CLR,0.00,VWS V14.01,2013-09-21 09:30:00,
2013-09-21 02:34:00,53.9,50.4,29.69,East,90,0.0,0.0,88,0.00,,OVC003,0.00,VWS V14.01,2013-09-21 09:34:00,
2013-09-21 02:35:00,53.9,50.4,29.69,East,90,0.0,0.0,88,0.00,,CLR,0.00,VWS V14.01,2013-09-21 09:35:00,
2013-09-21 02:39:00,53.9,50.4,29.69,East,90,0.0,0.0,88,0.00,,OVC003,0.00,VWS V14.01,2013-09-21 09:39:00,
2013-09-21 02:40:00,53.9,50.4,29.69,East,90,0.0,0.0,88,0.00,,CLR,0.00,VWS V14.01,2013-09-21 09:40:00,
2013-09-21 02:44:00,53.9,50.4,29.69,East,90,0.0,0.0,88,0.00,,OVC003,0.00,VWS V14.01,2013-09-21 09:44:00,
2013-09-21 02:45:00,53.9,50.4,29.69,East,90,0.0,0.0,88,0.00,,CLR,0.00,VWS V14.01,2013-09-21 09:45:00,
2013-09-21 02:49:00,53.9,50.4,29.69,East,90,0.0,0.0,88,0.00,,OVC003,0.00,VWS V14.01,2013-09-21 09:49:00,
2013-09-21 02:50:00,53.9,50.4,29.69,East,90,0.0,0.0,88,0.00,,CLR,0.00,VWS V14.01,2013-09-21 09:50:00,
2013-09-21 02:54:00,53.9,50.4,29.69,East,90,0.0,0.0,88,0.00,,OVC003,0.00,VWS V14.01,2013-09-21 09:54:00,
2013-09-21 02:55:00,53.9,50.4,29.69,East,90,0.0,0.0,88,0.00,,CLR,0.00,VWS V14.01,2013-09-21 09:55:00,
2013-09-21 02:59:00,53.9,50.4,29.69,East,90,0.0,0.0,88,0.00,,OVC003,0.00,VWS V14.01,2013-09-21 09:59:00,
2013-09-21 03:00:00,53.9,50.4,29.69,East,90,0.0,0.0,88,0.00,,CLR,0.00,VWS V14.01,2013-09-21 10:00:00,
2013-09-21 03:05:00,53.9,50.4,29.69,East,90,0.0,0.0,88,0.00,,OVC003,0.00,VWS V14.01,2013-09-21 10:05:00,
2013-09-21 03:10:00,53.9,50.7,29.68,East,90,0.0,0.0,89,0.00,,OVC003,0.00,VWS V14.01,2013-09-21 10:10:00,
2013-09-21 03:15:00,53.9,50.7,29.69,East,90,0.0,0.0,89,0.00,,OVC003,0.00,VWS V14.01,2013-09-21 10:15:00,
2013-09-21 03:20:00,53.9,50.7,29.69,East,90,0.0,0.0,89,0.00,,OVC003,0.00,VWS V14.01,2013-09-21 10:20:00,
2013-09-21 03:25:00,53.7,50.5,29.69,East,90,0.0,0.0,89,0.00,,OVC003,0.00,VWS V14.01,2013-09-21 10:25:00,
2013-09-21 03:30:00,53.7,50.5,29.69,East,90,0.0,0.0,89,0.00,,OVC003,0.00,VWS V14.01,2013-09-21 10:30:00,
2013-09-21 03:35:00,53.7,50.5,29.69,East,90,0.0,0.0,89,0.00,,OVC003,0.00,VWS V14.01,2013-09-21 10:35:00,
2013-09-21 03:40:00,53.7,50.5,29.69,SE,135,0.0,0.0,89,0.00,,OVC003,0.00,VWS V14.01,2013-09-21 10:40:00,
2013-09-21 03:45:00,53.7,50.5,29.69,SE,135,0.0,0.0,89,0.00,,OVC003,0.00,VWS V14.01,2013-09-21 10:45:00,
2013-09-21 03:50:00,53.7,50.5,29.69,SE,135,0.0,0.0,89,0.00,,OVC003,0.00,VWS V14.01,2013-09-21 10:50:00,
2013-09-21 03:55:00,53.7,50.5,29.68,SE,135,0.0,0.0,89,0.00,,OVC003,0.00,VWS V14.01,2013-09-21 10:55:00,
2013-09-21 04:00:00,53.4,50.2,29.69,SE,135,0.0,0.0,89,0.00,,OVC003,0.00,VWS V14.01,2013-09-21 11:00:00,
2013-09-21 04:05:00,53.4,50.2,29.68,SE,135,0.0,0.0,89,0.00,,OVC003,0.00,VWS V14.01,2013-09-21 11:05:00,
2013-09-21 04:10:00,53.4,50.2,29.68,SE,135,0.0,0.0,89,0.00,,OVC003,0.00,VWS V14.01,2013-09-21 11:10:00,
2013-09-21 04:15:00,53.4,50.2,29.69,SE,135,0.0,0.0,89,0.00,,OVC003,0.00,VWS V14.01,2013-09-21 11:15:00,
2013-09-21 04:20:00,53.4,50.2,29.69,SE,135,0.0,0.0,89,0.00,,CLR,0.00,VWS V14.01,2013-09-21 11:20:00,
2013-09-21 04:21:00,53.4,50.2,29.69,SE,135,0.0,0.0,89,0.00,,OVC003,0.00,VWS V14.01,2013-09-21 11:21:00,
2013-09-21 04:25:00,53.2,50.0,29.69,SE,135,0.0,0.0,89,0.00,,CLR,0.00,VWS V14.01,2013-09-21 11:25:00,
2013-09-21 04:26:00,53.2,50.0,29.69,SE,135,0.0,0.0,89,0.00,,OVC003,0.00,VWS V14.01,2013-09-21 11:26:00,
2013-09-21 04:30:00,53.0,49.8,29.69,ENE,68,0.0,0.0,89,0.00,,CLR,0.00,VWS V14.01,2013-09-21 11:30:00,
2013-09-21 04:31:00,53.0,49.8,29.69,ENE,68,0.0,0.0,89,0.00,,OVC003,0.00,VWS V14.01,2013-09-21 11:31:00,
2013-09-21 04:35:00,52.8,49.7,29.69,SW,225,0.0,0.0,89,0.00,,CLR,0.00,VWS V14.01,2013-09-21 11:35:00,
2013-09-21 04:36:00,52.8,49.7,29.69,SW,225,0.0,0.0,89,0.00,,OVC003,0.00,VWS V14.01,2013-09-21 11:36:00,
2013-09-21 04:40:00,52.8,49.7,29.70,SW,225,0.0,0.0,89,0.00,,CLR,0.00,VWS V14.01,2013-09-21 11:40:00,
2013-09-21 04:41:00,52.8,49.7,29.70,SW,225,0.0,0.0,89,0.00,,OVC003,0.00,VWS V14.01,2013-09-21 11:41:00,
2013-09-21 04:45:00,52.8,49.7,29.70,ESE,112,0.0,0.0,89,0.00,,CLR,0.00,VWS V14.01,2013-09-21 11:45:00,
2013-09-21 04:46:00,52.8,49.7,29.69,ESE,112,0.0,0.0,89,0.00,,OVC003,0.00,VWS V14.01,2013-09-21 11:46:00,
2013-09-21 04:50:00,52.8,49.7,29.70,ESE,112,0.0,0.0,89,0.00,,CLR,0.00,VWS V14.01,2013-09-21 11:50:00,
2013-09-21 04:51:00,52.8,49.7,29.70,ESE,112,0.0,0.0,89,0.00,,OVC003,0.00,VWS V14.01,2013-09-21 11:51:00,
2013-09-21 04:55:00,52.8,49.7,29.70,NE,45,0.0,0.0,89,0.00,,CLR,0.00,VWS V14.01,2013-09-21 11:55:00,
2013-09-21 04:56:00,52.8,49.7,29.70,NE,45,0.0,0.0,89,0.00,,OVC003,0.00,VWS V14.01,2013-09-21 11:56:00,
2013-09-21 05:00:00,52.8,49.7,29.70,SE,135,0.0,0.0,89,0.00,,CLR,0.00,VWS V14.01,2013-09-21 12:00:00,
2013-09-21 05:01:00,52.8,49.7,29.70,SE,135,0.0,0.0,89,0.00,,OVC003,0.00,VWS V14.01,2013-09-21 12:01:00,
2013-09-21 05:05:00,52.8,49.7,29.70,SE,135,0.0,0.0,89,0.00,,CLR,0.00,VWS V14.01,2013-09-21 12:05:00,
2013-09-21 05:06:00,52.8,49.7,29.70,SE,135,0.0,0.0,89,0.00,,OVC003,0.00,VWS V14.01,2013-09-21 12:06:00,
2013-09-21 05:10:00,52.8,49.7,29.70,SE,135,0.0,0.0,89,0.00,,CLR,0.00,VWS V14.01,2013-09-21 12:10:00,
2013-09-21 05:11:00,52.8,49.7,29.70,SE,135,0.0,0.0,89,0.00,,OVC003,0.00,VWS V14.01,2013-09-21 12:11:00,
2013-09-21 05:15:00,52.7,49.6,29.70,ENE,68,0.0,0.0,89,0.00,,CLR,0.00,VWS V14.01,2013-09-21 12:15:00,
2013-09-21 05:17:00,52.7,49.5,29.70,ENE,68,0.0,0.0,89,0.00,,OVC003,0.00,VWS V14.01,2013-09-21 12:17:00,
2013-09-21 05:20:00,52.7,49.6,29.70,West,270,0.0,0.0,89,0.00,,CLR,0.00,VWS V14.01,2013-09-21 12:20:00,
2013-09-21 05:22:00,52.7,49.5,29.70,West,270,0.0,0.0,89,0.00,,OVC003,0.00,VWS V14.01,2013-09-21 12:22:00,
2013-09-21 05:25:00,52.7,49.6,29.70,SE,135,0.0,0.0,89,0.00,,CLR,0.00,VWS V14.01,2013-09-21 12:25:00,
2013-09-21 05:27:00,52.7,49.5,29.71,SE,135,0.0,0.0,89,0.00,,OVC003,0.00,VWS V14.01,2013-09-21 12:27:00,
2013-09-21 05:30:00,52.7,49.6,29.70,SE,135,0.0,0.0,89,0.00,,CLR,0.00,VWS V14.01,2013-09-21 12:30:00,
2013-09-21 05:32:00,52.7,49.5,29.70,SE,135,0.0,0.0,89,0.00,,OVC003,0.00,VWS V14.01,2013-09-21 12:32:00,
2013-09-21 05:35:00,52.7,49.6,29.70,SSE,158,0.0,0.0,89,0.00,,CLR,0.00,VWS V14.01,2013-09-21 12:35:00,
2013-09-21 05:37:00,52.7,49.5,29.70,SSE,158,0.0,0.0,89,0.00,,OVC003,0.00,VWS V14.01,2013-09-21 12:37:00,
2013-09-21 05:40:00,52.5,49.4,29.70,SSW,202,0.0,0.0,89,0.00,,CLR,0.00,VWS V14.01,2013-09-21 12:40:00,
2013-09-21 05:42:00,52.5,49.4,29.70,SSW,202,0.0,0.0,89,0.00,,OVC003,0.00,VWS V14.01,2013-09-21 12:42:00,
2013-09-21 05:45:00,52.5,49.4,29.70,SSW,202,0.0,0.0,89,0.00,,CLR,0.00,VWS V14.01,2013-09-21 12:45:00,
2013-09-21 05:47:00,52.5,49.4,29.70,SSW,202,0.0,0.0,89,0.00,,OVC003,0.00,VWS V14.01,2013-09-21 12:47:00,
2013-09-21 05:50:00,52.5,49.4,29.70,SE,135,0.0,0.0,89,0.00,,CLR,0.00,VWS V14.01,2013-09-21 12:50:00,
2013-09-21 05:52:00,52.5,49.4,29.70,ESE,112,0.0,0.0,89,0.00,,OVC003,0.00,VWS V14.01,2013-09-21 12:52:00,
2013-09-21 05:55:00,52.5,49.4,29.70,ESE,112,0.0,0.0,89,0.00,,CLR,0.00,VWS V14.01,2013-09-21 12:55:00,
2013-09-21 05:57:00,52.3,49.2,29.70,ESE,112,0.0,0.0,89,0.00,,OVC003,0.00,VWS V14.01,2013-09-21 12:57:00,
2013-09-21 06:00:00,52.3,49.2,29.70,ESE,112,0.0,0.0,89,0.00,,CLR,0.00,VWS V14.01,2013-09-21 13:00:00,
2013-09-21 06:03:00,52.3,49.2,29.70,ESE,112,0.0,0.0,89,0.00,,OVC003,0.00,VWS V14.01,2013-09-21 13:03:00,
2013-09-21 06:05:00,52.3,49.2,29.70,ESE,112,0.0,0.0,89,0.00,,CLR,0.00,VWS V14.01,2013-09-21 13:05:00,
2013-09-21 06:08:00,52.3,49.2,29.70,ESE,112,0.0,0.0,89,0.00,,OVC003,0.00,VWS V14.01,2013-09-21 13:08:00,
2013-09-21 06:10:00,52.3,49.2,29.70,ESE,112,0.0,0.0,89,0.00,,CLR,0.00,VWS V14.01,2013-09-21 13:10:00,
2013-09-21 06:13:00,52.1,49.0,29.70,ESE,112,0.0,0.0,89,0.00,,OVC003,0.00,VWS V14.01,2013-09-21 13:13:00,
2013-09-21 06:15:00,52.3,49.2,29.70,ESE,112,0.0,0.0,89,0.00,,CLR,0.00,VWS V14.01,2013-09-21 13:15:00,
2013-09-21 06:18:00,52.3,49.2,29.70,ESE,112,0.0,0.0,89,0.00,,OVC003,0.00,VWS V14.01,2013-09-21 13:18:00,
2013-09-21 06:20:00,52.1,49.0,29.70,ESE,112,0.0,0.0,89,0.00,,CLR,0.00,VWS V14.01,2013-09-21 13:20:00,
2013-09-21 06:23:00,52.1,49.0,29.70,ESE,112,0.0,0.0,89,0.00,,OVC003,0.00,VWS V14.01,2013-09-21 13:23:00,
2013-09-21 06:25:00,52.1,49.0,29.70,ESE,112,0.0,0.0,89,0.00,,CLR,0.00,VWS V14.01,2013-09-21 13:25:00,
2013-09-21 06:28:00,52.1,49.0,29.70,ESE,112,0.0,0.0,89,0.00,,OVC003,0.00,VWS V14.01,2013-09-21 13:28:00,
2013-09-21 06:30:00,52.1,49.0,29.70,ESE,112,0.0,0.0,89,0.00,,CLR,0.00,VWS V14.01,2013-09-21 13:30:00,
2013-09-21 06:33:00,52.1,49.0,29.70,ESE,112,0.0,0.0,89,0.00,,OVC003,0.00,VWS V14.01,2013-09-21 13:33:00,
2013-09-21 06:35:00,52.1,49.0,29.71,ESE,112,0.0,0.0,89,0.00,,CLR,0.00,VWS V14.01,2013-09-21 13:35:00,
2013-09-21 06:38:00,52.1,49.0,29.71,ESE,112,0.0,0.0,89,0.00,,OVC003,0.00,VWS V14.01,2013-09-21 13:38:00,
2013-09-21 06:40:00,52.1,49.0,29.71,ESE,112,0.0,0.0,89,0.00,,CLR,0.00,VWS V14.01,2013-09-21 13:40:00,
2013-09-21 06:43:00,52.1,49.0,29.71,ESE,112,0.0,0.0,89,0.00,,OVC003,0.00,VWS V14.01,2013-09-21 13:43:00,
2013-09-21 06:45:00,52.1,49.0,29.71,ESE,112,0.0,0.0,89,0.00,,CLR,0.00,VWS V14.01,2013-09-21 13:45:00,
2013-09-21 06:48:00,52.1,49.0,29.71,ESE,112,0.0,0.0,89,0.00,,OVC003,0.00,VWS V14.01,2013-09-21 13:48:00,
2013-09-21 06:50:00,52.1,49.0,29.71,ESE,112,0.0,0.0,89,0.00,,CLR,0.00,VWS V14.01,2013-09-21 13:50:00,
2013-09-21 06:53:00,52.1,49.0,29.71,ESE,112,0.0,0.0,89,0.00,,OVC003,0.00,VWS V14.01,2013-09-21 13:53:00,
2013-09-21 06:55:00,52.1,49.0,29.71,ESE,112,0.0,0.0,89,0.00,,CLR,0.00,VWS V14.01,2013-09-21 13:55:00,
2013-09-21 06:58:00,52.1,49.0,29.71,ESE,112,0.0,0.0,89,0.00,,OVC003,0.00,VWS V14.01,2013-09-21 13:58:00,
2013-09-21 07:00:00,52.1,49.0,29.71,ESE,112,0.0,0.0,89,0.00,,CLR,0.00,VWS V14.01,2013-09-21 14:00:00,
2013-09-21 07:03:00,52.3,49.2,29.71,ESE,112,0.0,0.0,89,0.00,,OVC003,0.00,VWS V14.01,2013-09-21 14:03:00,
2013-09-21 07:05:00,52.1,49.0,29.71,ESE,112,0.0,0.0,89,0.00,,CLR,0.00,VWS V14.01,2013-09-21 14:05:00,
2013-09-21 07:08:00,52.3,49.2,29.72,ESE,112,0.0,0.0,89,0.00,,OVC003,0.00,VWS V14.01,2013-09-21 14:08:00,
2013-09-21 07:10:00,52.3,49.2,29.71,ESE,112,0.0,0.0,89,0.00,,CLR,0.00,VWS V14.01,2013-09-21 14:10:00,
2013-09-21 07:13:00,52.3,49.2,29.72,ESE,112,0.0,0.0,89,0.00,,OVC003,0.00,VWS V14.01,2013-09-21 14:13:00,
2013-09-21 07:15:00,52.3,49.2,29.72,ESE,112,0.0,0.0,89,0.00,,CLR,0.00,VWS V14.01,2013-09-21 14:15:00,
2013-09-21 07:18:00,52.3,49.2,29.72,ESE,112,0.0,0.0,89,0.00,,OVC003,0.00,VWS V14.01,2013-09-21 14:18:00,
2013-09-21 07:20:00,52.3,49.2,29.72,ESE,112,0.0,0.0,89,0.00,,CLR,0.00,VWS V14.01,2013-09-21 14:20:00,
2013-09-21 07:23:00,52.3,49.2,29.72,ESE,112,0.0,0.0,89,0.00,,OVC003,0.00,VWS V14.01,2013-09-21 14:23:00,
2013-09-21 07:25:00,52.3,49.2,29.72,ESE,112,0.0,0.0,89,0.00,,CLR,0.00,VWS V14.01,2013-09-21 14:25:00,
2013-09-21 07:28:00,52.3,49.2,29.72,ESE,112,0.0,0.0,89,0.00,,OVC003,0.00,VWS V14.01,2013-09-21 14:28:00,
2013-09-21 07:30:00,52.3,49.2,29.72,ESE,112,0.0,0.0,89,0.00,,CLR,0.00,VWS V14.01,2013-09-21 14:30:00,
2013-09-21 07:33:00,52.3,49.2,29.72,ESE,112,0.0,0.0,89,0.00,,OVC003,0.00,VWS V14.01,2013-09-21 14:33:00,
2013-09-21 07:35:00,52.3,49.2,29.72,ESE,112,0.0,0.0,89,0.00,,CLR,0.00,VWS V14.01,2013-09-21 14:35:00,
2013-09-21 07:39:00,52.3,49.2,29.72,ESE,112,0.0,0.0,89,0.00,,OVC003,0.00,VWS V14.01,2013-09-21 14:39:00,
2013-09-21 07:40:00,52.3,49.2,29.72,ESE,112,0.0,0.0,89,0.00,,CLR,0.00,VWS V14.01,2013-09-21 14:40:00,
2013-09-21 07:44:00,52.3,49.2,29.72,ESE,112,0.0,0.0,89,0.00,,OVC003,0.00,VWS V14.01,2013-09-21 14:44:00,
2013-09-21 07:45:00,52.3,49.2,29.72,ESE,112,0.0,0.0,89,0.00,,CLR,0.00,VWS V14.01,2013-09-21 14:45:00,
2013-09-21 07:49:00,52.5,49.4,29.73,ESE,112,0.0,0.0,89,0.00,,OVC003,0.00,VWS V14.01,2013-09-21 14:49:00,
2013-09-21 07:50:00,52.5,49.4,29.73,ESE,112,0.0,0.0,89,0.00,,CLR,0.00,VWS V14.01,2013-09-21 14:50:00,
2013-09-21 07:54:00,52.5,49.4,29.73,ESE,112,0.0,0.0,89,0.00,,OVC003,0.00,VWS V14.01,2013-09-21 14:54:00,
2013-09-21 07:55:00,52.7,49.6,29.73,ESE,112,0.0,0.0,89,0.00,,CLR,0.00,VWS V14.01,2013-09-21 14:55:00,
2013-09-21 07:59:00,52.7,49.5,29.73,ESE,112,0.0,0.0,89,0.00,,OVC003,0.00,VWS V14.01,2013-09-21 14:59:00,
2013-09-21 08:00:00,52.7,49.6,29.73,ESE,112,0.0,0.0,89,0.00,,CLR,0.00,VWS V14.01,2013-09-21 15:00:00,
2013-09-21 08:04:00,52.7,49.5,29.73,ESE,112,0.0,0.0,89,0.00,,OVC003,0.00,VWS V14.01,2013-09-21 15:04:00,
2013-09-21 08:05:00,52.7,49.6,29.73,ESE,112,0.0,0.0,89,0.00,,CLR,0.00,VWS V14.01,2013-09-21 15:05:00,
2013-09-21 08:09:00,52.7,49.5,29.73,ESE,112,0.0,0.0,89,0.00,,OVC003,0.00,VWS V14.01,2013-09-21 15:09:00,
2013-09-21 08:10:00,52.7,49.6,29.73,ESE,112,0.0,0.0,89,0.00,,CLR,0.00,VWS V14.01,2013-09-21 15:10:00,
2013-09-21 08:14:00,52.7,49.5,29.73,ESE,112,0.0,0.0,89,0.00,,OVC003,0.00,VWS V14.01,2013-09-21 15:14:00,
2013-09-21 08:15:00,52.7,49.6,29.73,ESE,112,0.0,0.0,89,0.00,,CLR,0.00,VWS V14.01,2013-09-21 15:15:00,
2013-09-21 08:19:00,52.7,49.5,29.72,ESE,112,0.0,0.0,89,0.00,,OVC003,0.00,VWS V14.01,2013-09-21 15:19:00,
2013-09-21 08:20:00,52.7,49.6,29.73,ESE,112,0.0,0.0,89,0.00,,CLR,0.00,VWS V14.01,2013-09-21 15:20:00,
2013-09-21 08:24:00,52.7,49.5,29.73,ESE,112,0.0,0.0,89,0.00,,OVC003,0.00,VWS V14.01,2013-09-21 15:24:00,
2013-09-21 08:25:00,52.7,49.6,29.73,ESE,112,0.0,0.0,89,0.00,,CLR,0.00,VWS V14.01,2013-09-21 15:25:00,
2013-09-21 08:29:00,52.7,49.5,29.73,ESE,112,0.0,0.0,89,0.00,,OVC003,0.00,VWS V14.01,2013-09-21 15:29:00,
2013-09-21 08:30:00,52.7,49.6,29.73,ESE,112,0.0,0.0,89,0.00,,CLR,0.00,VWS V14.01,2013-09-21 15:30:00,
2013-09-21 08:34:00,52.7,49.5,29.73,ESE,112,0.0,0.0,89,0.00,,OVC003,0.00,VWS V14.01,2013-09-21 15:34:00,
2013-09-21 08:35:00,52.7,49.6,29.73,ESE,112,0.0,0.0,89,0.00,,CLR,0.00,VWS V14.01,2013-09-21 15:35:00,
2013-09-21 08:39:00,52.7,49.5,29.73,ESE,112,0.0,0.0,89,0.00,,OVC003,0.00,VWS V14.01,2013-09-21 15:39:00,
2013-09-21 08:40:00,52.7,49.6,29.73,ESE,112,0.0,0.0,89,0.00,,CLR,0.00,VWS V14.01,2013-09-21 15:40:00,
2013-09-21 08:44:00,52.7,49.5,29.73,ESE,112,0.0,0.0,89,0.00,,OVC003,0.00,VWS V14.01,2013-09-21 15:44:00,
2013-09-21 08:45:00,52.7,49.6,29.73,ESE,112,0.0,0.0,89,0.00,,CLR,0.00,VWS V14.01,2013-09-21 15:45:00,
2013-09-21 08:50:00,52.7,49.5,29.73,ESE,112,0.0,0.0,89,0.00,,OVC003,0.00,VWS V14.01,2013-09-21 15:50:00,
2013-09-21 08:55:00,52.7,49.5,29.73,ESE,112,0.0,0.0,89,0.00,,OVC003,0.00,VWS V14.01,2013-09-21 15:55:00,
2013-09-21 09:00:00,52.7,49.5,29.73,ESE,112,0.0,0.0,89,0.00,,OVC003,0.00,VWS V14.01,2013-09-21 16:00:00,
2013-09-21 09:05:00,52.7,49.5,29.73,ESE,112,0.0,0.0,89,0.00,,OVC003,0.00,VWS V14.01,2013-09-21 16:05:00,
2013-09-21 09:10:00,52.7,49.5,29.73,ESE,112,0.0,0.0,89,0.00,,OVC003,0.00,VWS V14.01,2013-09-21 16:10:00,
2013-09-21 09:15:00,52.7,49.5,29.73,ESE,112,0.0,0.0,89,0.00,,OVC003,0.00,VWS V14.01,2013-09-21 16:15:00,
2013-09-21 09:20:00,52.7,49.5,29.73,ESE,112,0.0,0.0,89,0.00,,OVC003,0.00,VWS V14.01,2013-09-21 16:20:00,
2013-09-21 09:25:00,52.7,49.5,29.73,ESE,112,0.0,0.0,89,0.00,,OVC003,0.00,VWS V14.01,2013-09-21 16:25:00,
2013-09-21 09:30:00,52.7,49.5,29.73,ESE,112,0.0,0.0,89,0.00,,OVC003,0.00,VWS V14.01,2013-09-21 16:30:00,
2013-09-21 09:35:00,52.7,49.5,29.73,ESE,112,0.0,0.0,89,0.00,,OVC003,0.00,VWS V14.01,2013-09-21 16:35:00,
2013-09-21 09:40:00,52.7,49.5,29.73,ESE,112,0.0,0.0,89,0.00,,OVC003,0.00,VWS V14.01,2013-09-21 16:40:00,
2013-09-21 09:45:00,52.7,49.5,29.73,ESE,112,0.0,0.0,89,0.00,,OVC003,0.00,VWS V14.01,2013-09-21 16:45:00,
2013-09-21 09:50:00,52.7,49.5,29.73,ESE,112,0.0,0.0,89,0.00,,OVC003,0.00,VWS V14.01,2013-09-21 16:50:00,
2013-09-21 09:55:00,52.7,49.5,29.73,ESE,112,0.0,0.0,89,0.00,,OVC003,0.00,VWS V14.01,2013-09-21 16:55:00,
2013-09-21 10:00:00,52.7,49.5,29.73,ESE,112,0.0,0.0,89,0.00,,OVC006,0.00,VWS V14.01,2013-09-21 17:00:00,
2013-09-21 10:05:00,59.0,53.8,29.74,ESE,112,0.0,0.0,83,0.00,,OVC006,0.00,VWS V14.01,2013-09-21 17:05:00,
2013-09-21 10:10:00,59.5,54.7,29.74,ESE,112,0.0,0.0,84,0.00,,OVC006,0.00,VWS V14.01,2013-09-21 17:10:00,
2013-09-21 10:15:00,60.6,55.4,29.74,SE,135,0.0,0.0,83,0.00,,OVC006,0.00,VWS V14.01,2013-09-21 17:15:00,
2013-09-21 10:20:00,61.7,56.2,29.74,SE,135,0.0,0.0,82,0.00,,OVC006,0.00,VWS V14.01,2013-09-21 17:20:00,
2013-09-21 10:25:00,62.4,56.5,29.74,SE,135,0.0,0.0,81,0.00,,OVC006,0.00,VWS V14.01,2013-09-21 17:25:00,
2013-09-21 10:30:00,63.6,57.0,29.75,East,90,0.0,0.0,79,0.00,,OVC006,0.00,VWS V14.01,2013-09-21 17:30:00,
2013-09-21 10:35:00,64.2,57.2,29.75,SE,135,0.0,0.0,78,0.00,,OVC006,0.00,VWS V14.01,2013-09-21 17:35:00,
2013-09-21 10:40:00,64.2,57.2,29.75,ENE,68,0.0,0.0,78,0.00,,OVC006,0.00,VWS V14.01,2013-09-21 17:40:00,
2013-09-21 10:45:00,64.2,56.5,29.75,ENE,68,0.0,0.0,76,0.00,,OVC006,0.00,VWS V14.01,2013-09-21 17:45:00,
2013-09-21 10:50:00,63.5,55.8,29.75,SE,135,0.0,0.0,76,0.00,,OVC006,0.00,VWS V14.01,2013-09-21 17:50:00,
2013-09-21 10:55:00,62.9,55.6,29.75,SE,135,0.0,0.0,77,0.00,,OVC006,0.00,VWS V14.01,2013-09-21 17:55:00,
2013-09-21 11:00:00,62.0,54.7,29.75,ESE,112,0.0,0.0,77,0.00,,OVC006,0.00,VWS V14.01,2013-09-21 18:00:00,
2013-09-21 11:05:00,61.5,54.6,29.75,ESE,112,0.0,0.0,78,0.00,,CLR,0.00,VWS V14.01,2013-09-21 18:05:00,
2013-09-21 11:06:00,61.5,54.6,29.75,ESE,112,0.0,0.0,78,0.00,,OVC006,0.00,VWS V14.01,2013-09-21 18:06:00,
2013-09-21 11:10:00,61.1,54.2,29.75,ESE,112,0.0,0.0,78,0.00,,CLR,0.00,VWS V14.01,2013-09-21 18:10:00,
2013-09-21 11:11:00,61.1,54.2,29.75,ESE,112,0.0,0.0,78,0.00,,OVC006,0.00,VWS V14.01,2013-09-21 18:11:00,
2013-09-21 11:15:00,60.9,54.3,29.75,ESE,112,0.0,0.0,79,0.00,,CLR,0.00,VWS V14.01,2013-09-21 18:15:00,
2013-09-21 11:16:00,60.9,54.3,29.75,ESE,112,0.0,0.0,79,0.00,,OVC006,0.00,VWS V14.01,2013-09-21 18:16:00,
2013-09-21 11:20:00,60.6,54.1,29.75,ESE,112,0.0,0.0,79,0.00,,CLR,0.00,VWS V14.01,2013-09-21 18:20:00,
2013-09-21 11:21:00,60.6,54.1,29.75,ESE,112,0.0,0.0,79,0.00,,OVC006,0.00,VWS V14.01,2013-09-21 18:21:00,
2013-09-21 11:25:00,60.6,54.4,29.75,ESE,112,0.0,0.0,80,0.00,,CLR,0.00,VWS V14.01,2013-09-21 18:25:00,
2013-09-21 11:26:00,60.6,54.4,29.75,ESE,112,0.0,0.0,80,0.00,,OVC006,0.00,VWS V14.01,2013-09-21 18:26:00,
2013-09-21 11:30:00,60.6,54.4,29.75,ESE,112,0.0,0.0,80,0.00,,CLR,0.00,VWS V14.01,2013-09-21 18:30:00,
2013-09-21 11:31:00,60.6,54.4,29.75,ESE,112,0.0,0.0,80,0.00,,OVC006,0.00,VWS V14.01,2013-09-21 18:31:00,
2013-09-21 11:35:00,60.4,54.2,29.75,ESE,112,0.0,0.0,80,0.00,,CLR,0.00,VWS V14.01,2013-09-21 18:35:00,
2013-09-21 11:36:00,60.4,54.2,29.75,ESE,112,0.0,0.0,80,0.00,,OVC006,0.00,VWS V14.01,2013-09-21 18:36:00,
2013-09-21 11:40:00,60.4,54.2,29.75,ESE,112,0.0,0.0,80,0.00,,CLR,0.00,VWS V14.01,2013-09-21 18:40:00,
2013-09-21 11:41:00,60.2,54.0,29.75,ESE,112,0.0,0.0,80,0.00,,OVC006,0.00,VWS V14.01,2013-09-21 18:41:00,
2013-09-21 11:45:00,60.4,54.2,29.75,ESE,112,0.0,0.0,80,0.00,,CLR,0.00,VWS V14.01,2013-09-21 18:45:00,
2013-09-21 11:46:00,60.4,54.2,29.75,ESE,112,0.0,0.0,80,0.00,,OVC006,0.00,VWS V14.01,2013-09-21 18:46:00,
2013-09-21 11:50:00,60.4,54.2,29.75,East,90,0.0,0.0,80,0.00,,CLR,0.00,VWS V14.01,2013-09-21 18:50:00,
2013-09-21 11:51:00,60.4,54.2,29.75,East,90,0.0,0.0,80,0.00,,OVC006,0.00,VWS V14.01,2013-09-21 18:51:00,
2013-09-21 11:55:00,60.6,54.8,29.74,East,90,0.0,0.0,81,0.00,,CLR,0.00,VWS V14.01,2013-09-21 18:55:00,
2013-09-21 11:56:00,60.9,55.0,29.75,East,90,0.0,0.0,81,0.00,,OVC006,0.00,VWS V14.01,2013-09-21 18:56:00,
2013-09-21 12:00:00,62.0,56.1,29.75,ESE,112,0.0,0.0,81,0.00,,CLR,0.00,VWS V14.01,2013-09-21 19:00:00,
2013-09-21 12:01:00,62.0,56.1,29.75,ESE,112,0.0,0.0,81,0.00,,BKN014,0.00,VWS V14.01,2013-09-21 19:01:00,
2013-09-21 12:05:00,63.3,56.7,29.75,SE,135,0.0,0.0,79,0.00,,CLR,0.00,VWS V14.01,2013-09-21 19:05:00,
2013-09-21 12:06:00,63.3,56.7,29.75,SE,135,0.0,0.0,79,0.00,,BKN014,0.00,VWS V14.01,2013-09-21 19:06:00,
2013-09-21 12:10:00,64.2,57.2,29.75,SE,135,0.0,0.0,78,0.00,,CLR,0.00,VWS V14.01,2013-09-21 19:10:00,
2013-09-21 12:11:00,64.5,56.8,29.75,SSE,158,0.0,0.0,76,0.00,,BKN014,0.00,VWS V14.01,2013-09-21 19:11:00,
2013-09-21 12:15:00,64.9,56.8,29.74,SSE,158,0.0,0.0,75,0.00,,CLR,0.00,VWS V14.01,2013-09-21 19:15:00,
2013-09-21 12:17:00,65.1,57.0,29.75,SE,135,0.0,0.0,75,0.00,,BKN014,0.00,VWS V14.01,2013-09-21 19:17:00,
2013-09-21 12:20:00,65.4,56.9,29.75,SE,135,0.0,0.0,74,0.00,,CLR,0.00,VWS V14.01,2013-09-21 19:20:00,
2013-09-21 12:22:00,65.6,57.1,29.75,SE,135,0.0,0.0,74,0.00,,BKN014,0.00,VWS V14.01,2013-09-21 19:22:00,
2013-09-21 12:25:00,65.8,57.3,29.75,SE,135,0.0,0.0,74,0.00,,CLR,0.00,VWS V14.01,2013-09-21 19:25:00,
2013-09-21 12:27:00,66.0,57.1,29.75,SE,135,0.0,0.0,73,0.00,,BKN014,0.00,VWS V14.01,2013-09-21 19:27:00,
2013-09-21 12:30:00,66.2,56.9,29.75,SE,135,0.0,0.0,72,0.00,,CLR,0.00,VWS V14.01,2013-09-21 19:30:00,
2013-09-21 12:32:00,66.5,57.2,29.75,SE,135,0.0,0.0,72,0.00,,BKN014,0.00,VWS V14.01,2013-09-21 19:32:00,
2013-09-21 12:35:00,66.9,57.2,29.75,SSW,202,0.0,0.0,71,0.00,,CLR,0.00,VWS V14.01,2013-09-21 19:35:00,
2013-09-21 12:37:00,67.1,57.0,29.75,SSW,202,2.2,2.2,70,0.00,,BKN014,0.00,VWS V14.01,2013-09-21 19:37:00,
2013-09-21 12:40:00,67.1,57.0,29.75,South,180,0.0,2.2,70,0.00,,CLR,0.00,VWS V14.01,2013-09-21 19:40:00,
2013-09-21 12:42:00,67.2,57.5,29.75,ESE,112,0.0,0.0,71,0.00,,BKN014,0.00,VWS V14.01,2013-09-21 19:42:00,
2013-09-21 12:45:00,67.8,57.3,29.75,SSE,158,0.0,0.0,69,0.00,,CLR,0.00,VWS V14.01,2013-09-21 19:45:00,
2013-09-21 12:47:00,68.1,57.6,29.75,SE,135,0.0,0.0,69,0.00,,BKN014,0.00,VWS V14.01,2013-09-21 19:47:00,
2013-09-21 12:50:00,67.8,57.3,29.75,SE,135,0.0,0.0,69,0.00,,CLR,0.00,VWS V14.01,2013-09-21 19:50:00,
2013-09-21 12:52:00,68.1,57.2,29.75,SSE,158,0.0,0.0,68,0.00,,BKN014,0.00,VWS V14.01,2013-09-21 19:52:00,
2013-09-21 12:55:00,68.3,57.3,29.75,ESE,112,0.0,0.0,68,0.00,,CLR,0.00,VWS V14.01,2013-09-21 19:55:00,
2013-09-21 12:57:00,68.3,57.3,29.74,SE,135,0.0,0.0,68,0.00,,BKN014,0.00,VWS V14.01,2013-09-21 19:57:00,
2013-09-21 13:00:00,68.7,57.3,29.75,SE,135,0.0,0.0,67,0.00,,CLR,0.00,VWS V14.01,2013-09-21 20:00:00,
2013-09-21 13:02:00,68.7,57.3,29.75,SE,135,0.0,0.0,67,0.00,,BKN014,0.00,VWS V14.01,2013-09-21 20:02:00,
2013-09-21 13:05:00,68.5,56.7,29.75,ENE,68,0.0,0.0,66,0.00,,CLR,0.00,VWS V14.01,2013-09-21 20:05:00,
2013-09-21 13:08:00,68.1,56.3,29.75,East,90,0.0,0.0,66,0.00,,BKN014,0.00,VWS V14.01,2013-09-21 20:08:00,
2013-09-21 13:10:00,67.8,56.0,29.75,East,90,0.0,0.0,66,0.00,,CLR,0.00,VWS V14.01,2013-09-21 20:10:00,
2013-09-21 13:13:00,67.2,55.9,29.75,East,90,0.0,0.0,67,0.00,,BKN014,0.00,VWS V14.01,2013-09-21 20:13:00,
2013-09-21 13:15:00,66.9,55.6,29.75,East,90,0.0,0.0,67,0.00,,CLR,0.00,VWS V14.01,2013-09-21 20:15:00,
2013-09-21 13:18:00,66.7,55.8,29.75,SE,135,0.0,0.0,68,0.00,,BKN014,0.00,VWS V14.01,2013-09-21 20:18:00,
2013-09-21 13:20:00,66.7,55.8,29.75,SE,135,0.0,0.0,68,0.00,,CLR,0.00,VWS V14.01,2013-09-21 20:20:00,
2013-09-21 13:23:00,66.7,55.8,29.74,SE,135,0.0,0.0,68,0.00,,BKN014,0.00,VWS V14.01,2013-09-21 20:23:00,
2013-09-21 13:25:00,66.9,56.0,29.74,SSE,158,0.0,0.0,68,0.00,,CLR,0.00,VWS V14.01,2013-09-21 20:25:00,
2013-09-21 13:28:00,66.9,56.4,29.75,SE,135,0.0,0.0,69,0.00,,BKN014,0.00,VWS V14.01,2013-09-21 20:28:00,
2013-09-21 13:30:00,67.2,56.3,29.74,SE,135,0.0,0.0,68,0.00,,CLR,0.00,VWS V14.01,2013-09-21 20:30:00,
2013-09-21 13:33:00,67.8,56.9,29.75,ENE,68,0.0,0.0,68,0.00,,BKN014,0.00,VWS V14.01,2013-09-21 20:33:00,
2013-09-21 13:35:00,68.1,57.2,29.74,ESE,112,0.0,0.0,68,0.00,,CLR,0.00,VWS V14.01,2013-09-21 20:35:00,
2013-09-21 13:38:00,68.3,56.9,29.74,SE,135,0.0,0.0,67,0.00,,BKN014,0.00,VWS V14.01,2013-09-21 20:38:00,
2013-09-21 13:40:00,68.1,56.3,29.74,SE,135,0.0,0.0,66,0.00,,CLR,0.00,VWS V14.01,2013-09-21 20:40:00,
2013-09-21 13:43:00,68.1,55.9,29.74,SE,135,0.0,0.0,65,0.00,,BKN014,0.00,VWS V14.01,2013-09-21 20:43:00,
2013-09-21 13:45:00,68.0,56.2,29.74,ENE,68,0.0,0.0,66,0.00,,CLR,0.00,VWS V14.01,2013-09-21 20:45:00,
2013-09-21 13:48:00,68.3,56.9,29.74,ESE,112,0.0,0.0,67,0.00,,BKN014,0.00,VWS V14.01,2013-09-21 20:48:00,
2013-09-21 13:50:00,68.5,57.1,29.74,ESE,112,0.0,0.0,67,0.00,,CLR,0.00,VWS V14.01,2013-09-21 20:50:00,
2013-09-21 13:53:00,68.7,56.9,29.74,ESE,112,0.0,0.0,66,0.00,,BKN014,0.00,VWS V14.01,2013-09-21 20:53:00,
2013-09-21 13:55:00,68.9,57.5,29.74,ENE,68,0.0,0.0,67,0.00,,CLR,0.00,VWS V14.01,2013-09-21 20:55:00,
2013-09-21 13:58:00,69.4,57.6,29.74,North,0,0.0,0.0,66,0.00,,BKN014,0.00,VWS V14.01,2013-09-21 20:58:00,
2013-09-21 14:00:00,69.6,57.8,29.74,North,0,0.0,0.0,66,0.00,,CLR,0.00,VWS V14.01,2013-09-21 21:00:00,
2013-09-21 14:03:00,69.6,57.8,29.74,North,0,0.0,0.0,66,0.00,,FEW026,0.00,VWS V14.01,2013-09-21 21:03:00,
2013-09-21 14:05:00,69.4,57.1,29.74,North,0,0.0,0.0,65,0.00,,CLR,0.00,VWS V14.01,2013-09-21 21:05:00,
2013-09-21 14:08:00,69.0,56.8,29.74,North,0,0.0,0.0,65,0.00,,FEW026,0.00,VWS V14.01,2013-09-21 21:08:00,
2013-09-21 14:10:00,68.7,56.5,29.73,North,0,0.0,0.0,65,0.00,,CLR,0.00,VWS V14.01,2013-09-21 21:10:00,
2013-09-21 14:13:00,67.8,56.0,29.73,North,0,0.0,0.0,66,0.00,,FEW026,0.00,VWS V14.01,2013-09-21 21:13:00,
2013-09-21 14:15:00,67.2,55.9,29.74,North,0,0.0,0.0,67,0.00,,CLR,0.00,VWS V14.01,2013-09-21 21:15:00,
2013-09-21 14:18:00,67.1,55.8,29.73,North,0,0.0,0.0,67,0.00,,FEW026,0.00,VWS V14.01,2013-09-21 21:18:00,
2013-09-21 14:20:00,68.1,57.2,29.73,North,0,0.0,0.0,68,0.00,,CLR,0.00,VWS V14.01,2013-09-21 21:20:00,
2013-09-21 14:23:00,69.0,57.6,29.73,North,0,0.0,0.0,67,0.00,,FEW026,0.00,VWS V14.01,2013-09-21 21:23:00,
2013-09-21 14:25:00,69.4,57.1,29.73,NNE,22,0.0,0.0,65,0.00,,CLR,0.00,VWS V14.01,2013-09-21 21:25:00,
2013-09-21 14:29:00,69.0,56.8,29.73,NNE,22,0.0,0.0,65,0.00,,FEW026,0.00,VWS V14.01,2013-09-21 21:29:00,
2013-09-21 14:30:00,68.5,56.3,29.73,NNE,22,0.0,0.0,65,0.00,,CLR,0.00,VWS V14.01,2013-09-21 21:30:00,
2013-09-21 14:34:00,68.1,56.3,29.73,NNE,22,0.0,0.0,66,0.00,,FEW026,0.00,VWS V14.01,2013-09-21 21:34:00,
2013-09-21 14:35:00,67.6,55.8,29.73,NNE,22,0.0,0.0,66,0.00,,CLR,0.00,VWS V14.01,2013-09-21 21:35:00,
2013-09-21 14:39:00,67.2,55.9,29.72,NNE,22,0.0,0.0,67,0.00,,FEW026,0.00,VWS V14.01,2013-09-21 21:39:00,
2013-09-21 14:40:00,66.9,55.6,29.72,NNE,22,0.0,0.0,67,0.00,,CLR,0.00,VWS V14.01,2013-09-21 21:40:00,
2013-09-21 14:44:00,66.3,55.4,29.72,NNE,22,0.0,0.0,68,0.00,,FEW026,0.00,VWS V14.01,2013-09-21 21:44:00,
2013-09-21 14:45:00,66.3,55.8,29.72,NNE,22,0.0,0.0,69,0.00,,CLR,0.00,VWS V14.01,2013-09-21 21:45:00,
2013-09-21 14:49:00,66.3,55.8,29.72,NNE,22,0.0,0.0,69,0.00,,FEW026,0.00,VWS V14.01,2013-09-21 21:49:00,
2013-09-21 14:50:00,66.3,55.8,29.72,NNE,22,0.0,0.0,69,0.00,,CLR,0.00,VWS V14.01,2013-09-21 21:50:00,
2013-09-21 14:54:00,66.2,55.3,29.72,ENE,68,0.0,0.0,68,0.00,,FEW026,0.00,VWS V14.01,2013-09-21 21:54:00,
2013-09-21 14:55:00,66.2,55.3,29.72,ENE,68,0.0,0.0,68,0.00,,CLR,0.00,VWS V14.01,2013-09-21 21:55:00,
2013-09-21 14:59:00,66.0,55.2,29.72,ENE,68,0.0,0.0,68,0.00,,FEW026,0.00,VWS V14.01,2013-09-21 21:59:00,
2013-09-21 15:00:00,65.6,54.8,29.72,ENE,68,0.0,0.0,68,0.00,,CLR,0.00,VWS V14.01,2013-09-21 22:00:00,
2013-09-21 15:04:00,65.4,55.0,29.72,ENE,68,0.0,0.0,69,0.00,,FEW026,0.00,VWS V14.01,2013-09-21 22:04:00,
2013-09-21 15:05:00,65.4,55.0,29.72,ENE,68,0.0,0.0,69,0.00,,CLR,0.00,VWS V14.01,2013-09-21 22:05:00,
2013-09-21 15:09:00,65.1,54.7,29.72,East,90,0.0,0.0,69,0.00,,FEW026,0.00,VWS V14.01,2013-09-21 22:09:00,
2013-09-21 15:10:00,65.1,54.7,29.72,East,90,0.0,0.0,69,0.00,,CLR,0.00,VWS V14.01,2013-09-21 22:10:00,
2013-09-21 15:14:00,65.1,55.1,29.72,East,90,0.0,0.0,70,0.00,,FEW026,0.00,VWS V14.01,2013-09-21 22:14:00,
2013-09-21 15:15:00,65.1,55.1,29.72,East,90,0.0,0.0,70,0.00,,CLR,0.00,VWS V14.01,2013-09-21 22:15:00,
2013-09-21 15:19:00,65.1,54.7,29.72,East,90,0.0,0.0,69,0.00,,FEW026,0.00,VWS V14.01,2013-09-21 22:19:00,
2013-09-21 15:20:00,65.1,54.7,29.72,East,90,0.0,0.0,69,0.00,,CLR,0.00,VWS V14.01,2013-09-21 22:20:00,
2013-09-21 15:24:00,65.1,54.7,29.72,East,90,0.0,0.0,69,0.00,,FEW026,0.00,VWS V14.01,2013-09-21 22:24:00,
2013-09-21 15:25:00,65.1,54.7,29.72,East,90,0.0,0.0,69,0.00,,CLR,0.00,VWS V14.01,2013-09-21 22:25:00,
2013-09-21 15:30:00,65.1,54.3,29.72,NNE,22,0.0,0.0,68,0.00,,FEW026,0.00,VWS V14.01,2013-09-21 22:30:00,
2013-09-21 15:35:00,65.1,54.3,29.72,SE,135,0.0,0.0,68,0.00,,FEW026,0.00,VWS V14.01,2013-09-21 22:35:00,
2013-09-21 15:40:00,65.1,53.9,29.71,SSE,158,0.0,0.0,67,0.00,,FEW026,0.00,VWS V14.01,2013-09-21 22:40:00,
2013-09-21 15:45:00,65.1,53.9,29.72,SE,135,0.0,0.0,67,0.00,,FEW026,0.00,VWS V14.01,2013-09-21 22:45:00,
2013-09-21 15:50:00,65.4,53.3,29.72,SE,135,0.0,0.0,65,0.00,,FEW026,0.00,VWS V14.01,2013-09-21 22:50:00,
2013-09-21 15:55:00,65.6,53.1,29.72,ENE,68,0.0,0.0,64,0.00,,FEW026,0.00,VWS V14.01,2013-09-21 22:55:00,
2013-09-21 16:00:00,65.4,52.5,29.72,SE,135,0.0,0.0,63,0.00,,SCT090,0.00,VWS V14.01,2013-09-21 23:00:00,
2013-09-21 16:05:00,65.4,52.9,29.72,SE,135,0.0,0.0,64,0.00,,SCT090,0.00,VWS V14.01,2013-09-21 23:05:00,
2013-09-21 16:10:00,65.8,53.3,29.72,SSE,158,0.0,0.0,64,0.00,,SCT090,0.00,VWS V14.01,2013-09-21 23:10:00,
2013-09-21 16:15:00,65.8,53.7,29.72,SE,135,0.0,0.0,65,0.00,,SCT090,0.00,VWS V14.01,2013-09-21 23:15:00,
2013-09-21 16:20:00,65.6,53.1,29.72,SSE,158,0.0,0.0,64,0.00,,SCT090,0.00,VWS V14.01,2013-09-21 23:20:00,
2013-09-21 16:25:00,65.4,53.3,29.72,SE,135,0.0,0.0,65,0.00,,SCT090,0.00,VWS V14.01,2013-09-21 23:25:00,
2013-09-21 16:30:00,65.1,53.1,29.72,SE,135,0.0,0.0,65,0.00,,SCT090,0.00,VWS V14.01,2013-09-21 23:30:00,
2013-09-21 16:35:00,64.9,52.9,29.72,East,90,0.0,1.7,65,0.00,,SCT090,0.00,VWS V14.01,2013-09-21 23:35:00,
2013-09-21 16:40:00,64.5,52.5,29.72,SSE,158,0.0,0.0,65,0.00,,SCT090,0.00,VWS V14.01,2013-09-21 23:40:00,
2013-09-21 16:45:00,64.5,52.5,29.72,ENE,68,0.0,0.0,65,0.00,,SCT090,0.00,VWS V14.01,2013-09-21 23:45:00,
2013-09-21 16:50:00,64.2,52.6,29.72,SE,135,0.0,0.0,66,0.00,,SCT090,0.00,VWS V14.01,2013-09-21 23:50:00,
2013-09-21 16:55:00,64.2,52.6,29.72,SSE,158,0.0,0.0,66,0.00,,SCT090,0.00,VWS V14.01,2013-09-21 23:55:00,
2013-09-21 17:00:00,64.2,53.0,29.72,ENE,68,0.0,0.0,67,0.00,,SCT090,0.00,VWS V14.01,2013-09-22 00:00:00,
2013-09-21 17:05:00,64.2,53.0,29.71,ESE,112,0.0,0.0,67,0.00,,SCT090,0.00,VWS V14.01,2013-09-22 00:05:00,
2013-09-21 17:10:00,64.2,53.4,29.71,NE,45,0.0,0.0,68,0.00,,SCT090,0.00,VWS V14.01,2013-09-22 00:10:00,
2013-09-21 17:15:00,64.0,53.2,29.71,South,180,0.0,0.0,68,0.00,,SCT090,0.00,VWS V14.01,2013-09-22 00:15:00,
2013-09-21 17:20:00,64.0,53.2,29.71,SSW,202,0.0,0.0,68,0.00,,SCT090,0.00,VWS V14.01,2013-09-22 00:20:00,
2013-09-21 17:25:00,63.6,52.9,29.71,SE,135,0.0,0.0,68,0.00,,SCT090,0.00,VWS V14.01,2013-09-22 00:25:00,
2013-09-21 17:30:00,63.6,52.5,29.71,SSE,158,0.0,0.0,67,0.00,,SCT090,0.00,VWS V14.01,2013-09-22 00:30:00,
2013-09-21 17:35:00,63.5,52.4,29.71,SSE,158,0.0,0.0,67,0.00,,SCT090,0.00,VWS V14.01,2013-09-22 00:35:00,
2013-09-21 17:40:00,63.3,52.6,29.71,East,90,0.0,0.0,68,0.00,,SCT090,0.00,VWS V14.01,2013-09-22 00:40:00,
2013-09-21 17:45:00,63.1,52.8,29.71,East,90,0.0,0.0,69,0.00,,SCT090,0.00,VWS V14.01,2013-09-22 00:45:00,
2013-09-21 17:50:00,63.1,52.8,29.71,ENE,68,0.0,0.0,69,0.00,,SCT090,0.00,VWS V14.01,2013-09-22 00:50:00,
2013-09-21 17:55:00,62.9,52.6,29.71,ENE,68,0.0,0.0,69,0.00,,SCT090,0.00,VWS V14.01,2013-09-22 00:55:00,
2013-09-21 18:00:00,62.7,52.8,29.71,SSE,158,0.0,0.0,70,0.00,,CLR,0.00,VWS V14.01,2013-09-22 01:00:00,
2013-09-21 18:05:00,62.6,52.7,29.71,SSE,158,0.0,0.0,70,0.00,,CLR,0.00,VWS V14.01,2013-09-22 01:05:00,
2013-09-21 18:10:00,62.4,52.9,29.71,ESE,112,0.0,0.0,71,0.00,,CLR,0.00,VWS V14.01,2013-09-22 01:10:00,
2013-09-21 18:15:00,62.4,52.9,29.71,SE,135,0.0,0.0,71,0.00,,CLR,0.00,VWS V14.01,2013-09-22 01:15:00,
2013-09-21 18:20:00,62.4,52.9,29.71,SE,135,0.0,0.0,71,0.00,,CLR,0.00,VWS V14.01,2013-09-22 01:20:00,
2013-09-21 18:25:00,62.4,52.9,29.72,ESE,112,0.0,0.0,71,0.00,,CLR,0.00,VWS V14.01,2013-09-22 01:25:00,
2013-09-21 18:30:00,62.2,52.7,29.72,SSE,158,0.0,0.0,71,0.00,,CLR,0.00,VWS V14.01,2013-09-22 01:30:00,